FFT3383 KSAN-KSFO

Flight info

Callsign FFT3383
Flight time 1h 7m
Altitude 34000
Route PADRZ2 IKAYE RIZIN SPLNT STOKD SERFR SERFR4
Aircraft A321/M-SDE3FGHIRWY/LB1

Departure

Time 2026-04-24 02:57
Airport San Diego International Airport (KSAN)

Arrival

Time 2026-04-24 04:04
Airport San Francisco International Airport (KSFO)
Time Latitude Longitude Altitude Speed Heading
2026-04-24 02:39 32.73339 -117.19916 23 ft 0 kts 116°
2026-04-24 02:42 32.73339 -117.19917 23 ft 1 kts 116°
2026-04-24 02:42 32.73348 -117.19943 24 ft 4 kts 102°
2026-04-24 02:42 32.73349 -117.19973 26 ft 4 kts 62°
2026-04-24 02:43 32.73335 -117.19988 25 ft 1 kts 13°
2026-04-24 02:43 32.73331 -117.19990 24 ft 0 kts 13°
2026-04-24 02:46 32.73342 -117.19987 25 ft 5 kts 13°
2026-04-24 02:46 32.73404 -117.19969 23 ft 13 kts 13°
2026-04-24 02:46 32.73472 -117.19924 23 ft 10 kts 73°
2026-04-24 02:47 32.73464 -117.19847 23 ft 9 kts 106°
2026-04-24 02:47 32.73447 -117.19779 26 ft 9 kts 107°
2026-04-24 02:47 32.73424 -117.19679 23 ft 17 kts 104°
2026-04-24 02:47 32.73386 -117.19520 24 ft 21 kts 106°
2026-04-24 02:48 32.73347 -117.19358 23 ft 20 kts 106°
2026-04-24 02:48 32.73309 -117.19200 22 ft 20 kts 106°
2026-04-24 02:48 32.73273 -117.19049 25 ft 19 kts 105°
2026-04-24 02:48 32.73237 -117.18907 23 ft 18 kts 107°
2026-04-24 02:49 32.73204 -117.18769 29 ft 17 kts 105°
2026-04-24 02:49 32.73173 -117.18638 22 ft 16 kts 105°
2026-04-24 02:49 32.73143 -117.18513 22 ft 15 kts 105°
2026-04-24 02:49 32.73113 -117.18395 23 ft 14 kts 107°
2026-04-24 02:50 32.73087 -117.18285 21 ft 13 kts 105°
2026-04-24 02:50 32.73061 -117.18177 21 ft 16 kts 106°
2026-04-24 02:50 32.73023 -117.18017 22 ft 24 kts 105°
2026-04-24 02:50 32.72973 -117.17823 21 ft 19 kts 108°
2026-04-24 02:51 32.72949 -117.17723 21 ft 11 kts 96°
2026-04-24 02:51 32.72954 -117.17680 21 ft 0 kts 75°
2026-04-24 02:55 32.72956 -117.17671 22 ft 4 kts 75°
2026-04-24 02:55 32.72983 -117.17615 22 ft 12 kts 44°
2026-04-24 02:56 32.73039 -117.17651 22 ft 11 kts 284°
2026-04-24 02:56 32.73060 -117.17743 23 ft 15 kts 286°
2026-04-24 02:56 32.73156 -117.18136 21 ft 96 kts 285°
2026-04-24 02:56 32.73413 -117.19207 44 ft 168 kts 287°
2026-04-24 02:57 32.73772 -117.20562 856 ft 171 kts 291°
2026-04-24 02:57 32.74403 -117.21743 1811 ft 168 kts 307°
2026-04-24 02:57 32.75127 -117.22871 2467 ft 184 kts 307°
2026-04-24 02:57 32.75921 -117.24167 2927 ft 205 kts 304°
2026-04-24 02:58 32.76700 -117.25589 3154 ft 214 kts 302°
2026-04-24 02:58 32.77508 -117.27150 3256 ft 232 kts 301°
2026-04-24 02:58 32.78401 -117.28878 3585 ft 255 kts 301°
2026-04-24 02:58 32.79355 -117.30694 4335 ft 262 kts 302°
2026-04-24 02:59 32.80365 -117.32522 5142 ft 267 kts 304°
2026-04-24 02:59 32.81467 -117.34309 5993 ft 269 kts 307°
2026-04-24 02:59 32.82613 -117.36078 6831 ft 271 kts 307°
2026-04-24 02:59 32.83779 -117.37849 7636 ft 273 kts 307°
2026-04-24 03:00 32.84953 -117.39632 8447 ft 275 kts 306°
2026-04-24 03:00 32.86134 -117.41435 9251 ft 277 kts 306°
2026-04-24 03:00 32.87322 -117.43263 9813 ft 281 kts 305°
2026-04-24 03:00 32.88499 -117.45082 9965 ft 281 kts 305°
2026-04-24 03:01 32.89688 -117.46922 9990 ft 280 kts 305°
2026-04-24 03:01 32.90893 -117.48789 9999 ft 293 kts 305°
2026-04-24 03:01 32.92134 -117.50721 9995 ft 295 kts 305°
2026-04-24 03:01 32.93373 -117.52651 9990 ft 292 kts 305°
2026-04-24 03:02 32.94610 -117.54580 9989 ft 295 kts 305°
2026-04-24 03:02 32.95869 -117.56543 9995 ft 298 kts 305°
2026-04-24 03:02 32.97157 -117.58553 9987 ft 304 kts 305°
2026-04-24 03:02 32.98458 -117.60580 9990 ft 308 kts 305°
2026-04-24 03:03 32.99779 -117.62643 10173 ft 319 kts 305°
2026-04-24 03:03 33.01141 -117.64775 10754 ft 326 kts 305°
2026-04-24 03:03 33.02522 -117.66934 11478 ft 329 kts 305°
2026-04-24 03:03 33.03896 -117.69078 12205 ft 332 kts 305°
2026-04-24 03:04 33.05300 -117.71272 12931 ft 334 kts 305°
2026-04-24 03:04 33.06826 -117.73388 13642 ft 340 kts 314°
2026-04-24 03:04 33.08621 -117.75247 14286 ft 343 kts 316°
2026-04-24 03:04 33.10446 -117.77099 14934 ft 345 kts 316°
2026-04-24 03:05 33.12280 -117.78960 15586 ft 348 kts 316°
2026-04-24 03:05 33.14130 -117.80835 16245 ft 350 kts 316°
2026-04-24 03:05 33.15962 -117.82698 16880 ft 352 kts 316°
2026-04-24 03:05 33.17828 -117.84601 17527 ft 354 kts 315°
2026-04-24 03:06 33.19697 -117.86529 18158 ft 356 kts 314°
2026-04-24 03:06 33.21510 -117.88551 18741 ft 357 kts 311°
2026-04-24 03:06 33.23272 -117.90642 19275 ft 358 kts 310°
2026-04-24 03:06 33.25020 -117.92776 19798 ft 360 kts 310°
2026-04-24 03:07 33.26776 -117.94930 20322 ft 363 kts 310°
2026-04-24 03:07 33.28548 -117.97091 20835 ft 365 kts 310°
2026-04-24 03:07 33.30337 -117.99257 21339 ft 368 kts 310°
2026-04-24 03:07 33.32125 -118.01407 21845 ft 370 kts 310°
2026-04-24 03:08 33.33953 -118.03595 22345 ft 373 kts 311°
2026-04-24 03:08 33.37658 -118.08007 23332 ft 378 kts 311°
2026-04-24 03:08 33.39528 -118.10242 23755 ft 381 kts 310°
2026-04-24 03:09 33.41404 -118.12489 24149 ft 383 kts 310°
2026-04-24 03:09 33.43296 -118.14754 24556 ft 385 kts 310°
2026-04-24 03:09 33.45196 -118.17031 24953 ft 387 kts 310°
2026-04-24 03:09 33.47101 -118.19318 25351 ft 389 kts 310°
2026-04-24 03:10 33.49015 -118.21621 25752 ft 391 kts 310°
2026-04-24 03:10 33.50935 -118.23934 26146 ft 393 kts 310°
2026-04-24 03:10 33.52840 -118.26233 26524 ft 395 kts 310°
2026-04-24 03:10 33.54778 -118.28569 26904 ft 397 kts 310°
2026-04-24 03:11 33.56731 -118.30920 27306 ft 398 kts 310°
2026-04-24 03:11 33.58687 -118.33273 27689 ft 400 kts 310°
2026-04-24 03:11 33.60656 -118.35648 28046 ft 402 kts 310°
2026-04-24 03:11 33.62629 -118.38032 28396 ft 404 kts 310°
2026-04-24 03:12 33.64612 -118.40430 28748 ft 406 kts 310°
2026-04-24 03:12 33.66601 -118.42839 29087 ft 408 kts 310°
2026-04-24 03:12 33.68606 -118.45266 29421 ft 410 kts 310°
2026-04-24 03:12 33.70616 -118.47697 29745 ft 411 kts 310°
2026-04-24 03:13 33.72609 -118.50113 30049 ft 413 kts 310°
2026-04-24 03:13 33.74633 -118.52569 30333 ft 415 kts 310°
2026-04-24 03:13 33.76669 -118.55037 30607 ft 416 kts 310°
2026-04-24 03:13 33.78710 -118.57511 30884 ft 418 kts 310°
2026-04-24 03:14 33.80762 -118.60000 31162 ft 420 kts 310°
2026-04-24 03:14 33.82817 -118.62496 31493 ft 420 kts 310°
2026-04-24 03:14 33.84866 -118.64985 31915 ft 418 kts 309°
2026-04-24 03:14 33.86910 -118.67468 32314 ft 417 kts 309°
2026-04-24 03:15 33.88944 -118.69944 32734 ft 415 kts 309°
2026-04-24 03:15 33.90966 -118.72414 33151 ft 413 kts 309°
2026-04-24 03:15 33.92980 -118.74878 33536 ft 413 kts 309°
2026-04-24 03:15 33.94994 -118.77341 33891 ft 413 kts 309°
2026-04-24 03:16 33.97007 -118.79800 33980 ft 408 kts 309°
2026-04-24 03:16 34.00907 -118.84563 33994 ft 399 kts 309°
2026-04-24 03:17 34.04789 -118.89320 33990 ft 397 kts 309°
2026-04-24 03:17 34.08660 -118.94078 33992 ft 397 kts 309°
2026-04-24 03:18 34.12518 -118.98826 33996 ft 396 kts 309°
2026-04-24 03:18 34.15857 -119.04002 34000 ft 389 kts 297°
2026-04-24 03:19 34.18716 -119.09542 33974 ft 389 kts 297°
2026-04-24 03:19 34.21146 -119.14260 33973 ft 389 kts 297°
2026-04-24 03:20 34.23445 -119.18733 33974 ft 389 kts 297°
2026-04-24 03:20 34.26299 -119.24297 33990 ft 390 kts 297°
2026-04-24 03:21 34.29153 -119.29861 33987 ft 390 kts 298°
2026-04-24 03:21 34.32006 -119.35429 33989 ft 389 kts 297°
2026-04-24 03:22 34.34857 -119.40998 33991 ft 390 kts 297°
2026-04-24 03:22 34.37690 -119.46535 33996 ft 390 kts 297°
2026-04-24 03:23 34.40550 -119.52107 34010 ft 390 kts 300°
2026-04-24 03:23 34.44200 -119.57052 33987 ft 396 kts 309°
2026-04-24 03:24 34.48082 -119.61799 33996 ft 397 kts 309°
2026-04-24 03:24 34.51953 -119.66559 34000 ft 397 kts 309°
2026-04-24 03:25 34.55795 -119.71295 33999 ft 397 kts 309°
2026-04-24 03:25 34.59664 -119.76073 33999 ft 397 kts 309°
2026-04-24 03:26 34.63524 -119.80852 34008 ft 396 kts 309°
2026-04-24 03:26 34.67383 -119.85635 33996 ft 396 kts 309°
2026-04-24 03:27 34.71243 -119.90419 34006 ft 397 kts 309°
2026-04-24 03:27 34.75081 -119.95170 34010 ft 396 kts 309°
2026-04-24 03:28 34.78940 -119.99964 34004 ft 397 kts 309°
2026-04-24 03:28 34.82801 -120.04779 34011 ft 398 kts 309°
2026-04-24 03:29 34.86669 -120.09607 34014 ft 399 kts 309°
2026-04-24 03:29 34.90507 -120.14401 34042 ft 397 kts 309°
2026-04-24 03:30 34.94374 -120.19232 34028 ft 399 kts 309°
2026-04-24 03:30 34.98301 -120.24150 34035 ft 413 kts 309°
2026-04-24 03:31 35.02380 -120.29263 34035 ft 425 kts 309°
2026-04-24 03:31 35.06489 -120.34416 34037 ft 427 kts 309°
2026-04-24 03:32 35.10675 -120.39579 34034 ft 429 kts 311°
2026-04-24 03:32 35.15089 -120.44523 34042 ft 431 kts 313°
2026-04-24 03:33 35.19573 -120.49399 34044 ft 431 kts 313°
2026-04-24 03:33 35.24016 -120.54325 34064 ft 431 kts 313°
2026-04-24 03:34 35.28399 -120.59264 34057 ft 432 kts 313°
2026-04-24 03:34 35.32814 -120.64253 34054 ft 431 kts 313°
2026-04-24 03:35 35.37226 -120.69233 34052 ft 431 kts 313°
2026-04-24 03:35 35.41637 -120.74213 34067 ft 431 kts 313°
2026-04-24 03:36 35.46012 -120.79161 34076 ft 430 kts 313°
2026-04-24 03:36 35.50601 -120.83910 34073 ft 434 kts 318°
2026-04-24 03:37 35.55417 -120.88370 34073 ft 434 kts 318°
2026-04-24 03:37 35.60238 -120.92838 34088 ft 434 kts 318°
2026-04-24 03:38 35.65049 -120.97309 34072 ft 434 kts 318°
2026-04-24 03:38 35.69862 -121.01792 34063 ft 434 kts 318°
2026-04-24 03:39 35.74636 -121.06249 34078 ft 434 kts 317°
2026-04-24 03:39 35.79445 -121.10746 34076 ft 432 kts 317°
2026-04-24 03:40 35.84172 -121.15157 34063 ft 424 kts 318°
2026-04-24 03:40 35.88231 -121.18957 34077 ft 422 kts 317°
2026-04-24 03:41 35.92869 -121.23314 34064 ft 420 kts 317°
2026-04-24 03:41 35.95194 -121.25503 33948 ft 423 kts 317°
2026-04-24 03:41 35.97527 -121.27702 33608 ft 420 kts 317°
2026-04-24 03:41 35.99842 -121.29880 33344 ft 418 kts 317°
2026-04-24 03:42 36.02150 -121.32049 33080 ft 416 kts 317°
2026-04-24 03:42 36.04448 -121.34210 32814 ft 414 kts 317°
2026-04-24 03:42 36.06740 -121.36349 32479 ft 412 kts 320°
2026-04-24 03:42 36.09143 -121.38268 31952 ft 410 kts 322°
2026-04-24 03:43 36.11549 -121.40144 31410 ft 407 kts 323°
2026-04-24 03:43 36.13942 -121.42009 30892 ft 405 kts 323°
2026-04-24 03:43 36.16283 -121.43832 30385 ft 403 kts 323°
2026-04-24 03:43 36.18646 -121.45672 29820 ft 399 kts 323°
2026-04-24 03:44 36.20982 -121.47493 29305 ft 395 kts 323°
2026-04-24 03:44 36.23294 -121.49298 28794 ft 391 kts 323°
2026-04-24 03:44 36.25579 -121.51085 28299 ft 386 kts 323°
2026-04-24 03:44 36.27829 -121.52845 27820 ft 380 kts 323°
2026-04-24 03:45 36.30047 -121.54580 27333 ft 375 kts 323°
2026-04-24 03:45 36.32242 -121.56300 26877 ft 371 kts 323°
2026-04-24 03:45 36.34412 -121.58002 26417 ft 367 kts 323°
2026-04-24 03:45 36.36558 -121.59687 25974 ft 363 kts 323°
2026-04-24 03:46 36.38679 -121.61353 25540 ft 359 kts 323°
2026-04-24 03:46 36.40784 -121.63009 25116 ft 356 kts 323°
2026-04-24 03:46 36.42168 -121.64097 24851 ft 355 kts 323°
2026-04-24 03:46 36.44914 -121.66260 24283 ft 351 kts 323°
2026-04-24 03:47 36.46970 -121.67883 23849 ft 349 kts 323°
2026-04-24 03:47 36.49016 -121.69499 23396 ft 348 kts 324°
2026-04-24 03:47 36.51051 -121.71106 22956 ft 345 kts 324°
2026-04-24 03:47 36.53062 -121.72694 22535 ft 341 kts 324°
2026-04-24 03:48 36.55058 -121.74272 22114 ft 338 kts 324°
2026-04-24 03:48 36.57039 -121.75839 21675 ft 337 kts 324°
2026-04-24 03:48 36.58347 -121.76873 21385 ft 335 kts 324°
2026-04-24 03:48 36.60312 -121.78424 20974 ft 336 kts 325°
2026-04-24 03:49 36.62346 -121.80020 20469 ft 352 kts 325°
2026-04-24 03:49 36.65116 -121.82207 19623 ft 357 kts 326°
2026-04-24 03:49 36.67204 -121.83863 19181 ft 355 kts 326°
2026-04-24 03:49 36.69277 -121.85519 18730 ft 352 kts 326°
2026-04-24 03:50 36.70668 -121.86629 18450 ft 351 kts 326°
2026-04-24 03:50 36.73413 -121.88739 17784 ft 350 kts 332°
2026-04-24 03:50 36.74893 -121.89530 17482 ft 349 kts 340°
2026-04-24 03:50 36.77236 -121.90279 17038 ft 346 kts 347°
2026-04-24 03:51 36.79582 -121.90925 16596 ft 344 kts 347°
2026-04-24 03:51 36.81905 -121.91571 16168 ft 341 kts 347°
2026-04-24 03:51 36.84214 -121.92216 15735 ft 338 kts 347°
2026-04-24 03:51 36.86500 -121.92858 15317 ft 336 kts 347°
2026-04-24 03:52 36.88776 -121.93499 14900 ft 334 kts 347°
2026-04-24 03:52 36.91040 -121.94136 14483 ft 333 kts 347°
2026-04-24 03:52 36.93294 -121.94768 14064 ft 331 kts 347°
2026-04-24 03:52 36.95532 -121.95413 13630 ft 330 kts 346°
2026-04-24 03:53 36.97733 -121.96178 13204 ft 327 kts 344°
2026-04-24 03:53 36.99895 -121.97020 12780 ft 324 kts 342°
2026-04-24 03:53 37.02003 -121.97877 12380 ft 322 kts 342°
2026-04-24 03:53 37.04123 -121.98739 11966 ft 319 kts 342°
2026-04-24 03:54 37.06231 -121.99586 11551 ft 317 kts 343°
2026-04-24 03:54 37.08329 -122.00418 11140 ft 315 kts 343°
2026-04-24 03:54 37.10418 -122.01239 10718 ft 314 kts 343°
2026-04-24 03:54 37.12496 -122.02054 10306 ft 312 kts 343°
2026-04-24 03:55 37.14538 -122.02853 10153 ft 302 kts 343°
2026-04-24 03:55 37.16506 -122.03622 9942 ft 293 kts 344°
2026-04-24 03:55 37.18423 -122.04370 9786 ft 284 kts 344°
2026-04-24 03:55 37.20289 -122.05101 9477 ft 279 kts 343°
2026-04-24 03:56 37.22111 -122.05816 9099 ft 278 kts 343°
2026-04-24 03:56 37.23978 -122.06551 8706 ft 277 kts 343°
2026-04-24 03:56 37.25810 -122.07270 8335 ft 275 kts 343°
2026-04-24 03:56 37.27628 -122.07984 7983 ft 273 kts 342°
2026-04-24 03:57 37.29430 -122.08692 7620 ft 271 kts 342°
2026-04-24 03:57 37.31220 -122.09395 7263 ft 269 kts 342°
2026-04-24 03:57 37.32976 -122.10085 6919 ft 267 kts 343°
2026-04-24 03:57 37.34741 -122.10780 6565 ft 265 kts 342°
2026-04-24 03:58 37.36497 -122.11473 6202 ft 263 kts 342°
2026-04-24 03:58 37.38240 -122.12151 5858 ft 261 kts 343°
2026-04-24 03:58 37.39974 -122.12770 5552 ft 257 kts 344°
2026-04-24 03:58 37.41691 -122.13354 5247 ft 254 kts 345°
2026-04-24 03:59 37.43394 -122.13925 4936 ft 252 kts 344°
2026-04-24 03:59 37.45075 -122.14490 4624 ft 249 kts 344°
2026-04-24 03:59 37.46744 -122.15057 4317 ft 247 kts 344°
2026-04-24 03:59 37.48375 -122.15612 4016 ft 245 kts 344°
2026-04-24 04:00 37.50015 -122.16174 3717 ft 243 kts 343°
2026-04-24 04:00 37.51634 -122.16728 3432 ft 241 kts 343°
2026-04-24 04:00 37.53131 -122.17608 3139 ft 237 kts 320°
2026-04-24 04:00 37.54168 -122.19159 2868 ft 228 kts 297°
2026-04-24 04:01 37.54900 -122.20904 2543 ft 222 kts 296°
2026-04-24 04:01 37.55606 -122.22588 2259 ft 214 kts 296°
2026-04-24 04:01 37.56277 -122.24184 2058 ft 200 kts 296°
2026-04-24 04:01 37.56919 -122.25708 2026 ft 194 kts 296°
2026-04-24 04:02 37.57547 -122.27204 2019 ft 193 kts 296°
2026-04-24 04:02 37.58169 -122.28691 1743 ft 190 kts 296°
2026-04-24 04:02 37.58771 -122.30122 1328 ft 177 kts 296°
2026-04-24 04:02 37.59327 -122.31444 891 ft 165 kts 296°
2026-04-24 04:03 37.59828 -122.32634 630 ft 143 kts 295°
2026-04-24 04:03 37.60271 -122.33682 419 ft 130 kts 295°
2026-04-24 04:03 37.60681 -122.34651 285 ft 125 kts 294°
2026-04-24 04:03 37.61083 -122.35612 126 ft 124 kts 294°
2026-04-24 04:04 37.61480 -122.36557 32 ft 115 kts 294°
2026-04-24 04:04 37.61779 -122.37293 23 ft 58 kts 298°
2026-04-24 04:04 37.61880 -122.37537 22 ft 16 kts 295°
2026-04-24 04:04 37.61913 -122.37627 22 ft 25 kts 298°
2026-04-24 04:05 37.61998 -122.37851 22 ft 20 kts 274°
2026-04-24 04:05 37.61956 -122.37951 22 ft 13 kts 229°
2026-04-24 04:05 37.61912 -122.38041 22 ft 12 kts 261°
2026-04-24 04:05 37.61937 -122.38137 23 ft 12 kts 300°
2026-04-24 04:06 37.61968 -122.38217 22 ft 8 kts 283°
2026-04-24 04:06 37.61966 -122.38285 24 ft 8 kts 262°
2026-04-24 04:06 37.61963 -122.38308 22 ft 0 kts 261°
2026-04-24 04:06 37.61962 -122.38316 22 ft 1 kts 261°
2026-04-24 04:07 37.61961 -122.38329 22 ft 2 kts 262°
2026-04-24 04:07 37.61960 -122.38339 22 ft 1 kts 262°
2026-04-24 04:07 37.61958 -122.38349 22 ft 1 kts 260°
2026-04-24 04:07 37.61957 -122.38357 22 ft 0 kts 261°